TimeCDT,TemperatureF,Dew PointF,Humidity,Sea Level PressureIn,VisibilityMPH,Wind Direction,Wind SpeedMPH,Gust SpeedMPH,PrecipitationIn,Events,Conditions,WindDirDegrees,DateUTC
12:53 AM,30.0,23.0,75,30.40,10.0,NNW,3.5,-,N/A,,Clear,330,2012-10-27 05:53:00
1:53 AM,28.9,23.0,78,30.41,10.0,NNW,4.6,-,N/A,,Clear,330,2012-10-27 06:53:00
2:53 AM,27.0,21.9,81,30.42,10.0,NW,3.5,-,N/A,,Clear,310,2012-10-27 07:53:00
3:53 AM,26.1,21.9,84,30.40,10.0,NW,4.6,-,N/A,,Clear,310,2012-10-27 08:53:00
4:53 AM,28.9,24.1,82,30.39,10.0,North,3.5,-,N/A,,Clear,350,2012-10-27 09:53:00
5:53 AM,27.0,23.0,85,30.39,10.0,North,4.6,-,N/A,,Clear,10,2012-10-27 10:53:00
6:53 AM,26.1,21.9,84,30.43,10.0,West,3.5,-,N/A,,Partly Cloudy,280,2012-10-27 11:53:00
7:53 AM,28.9,24.1,82,30.43,10.0,NNW,3.5,-,N/A,,Overcast,330,2012-10-27 12:53:00
8:53 AM,30.9,27.0,85,30.44,10.0,Calm,Calm,-,N/A,,Overcast,0,2012-10-27 13:53:00
9:53 AM,37.0,26.1,65,30.44,10.0,Calm,Calm,-,N/A,,Overcast,0,2012-10-27 14:53:00
10:53 AM,37.9,25.0,60,30.43,10.0,Variable,3.5,-,N/A,,Overcast,0,2012-10-27 15:53:00
11:53 AM,39.0,25.0,57,30.41,10.0,NNE,3.5,-,N/A,,Overcast,30,2012-10-27 16:53:00
12:53 PM,39.9,25.0,55,30.38,10.0,Calm,Calm,-,N/A,,Scattered Clouds,0,2012-10-27 17:53:00
1:53 PM,41.0,27.0,57,30.35,10.0,Variable,3.5,-,N/A,,Overcast,0,2012-10-27 18:53:00
2:53 PM,43.0,25.0,49,30.33,10.0,Calm,Calm,-,N/A,,Partly Cloudy,0,2012-10-27 19:53:00
3:53 PM,44.1,26.1,49,30.32,10.0,Variable,3.5,-,N/A,,Clear,0,2012-10-27 20:53:00
4:53 PM,43.0,25.0,49,30.31,10.0,NE,5.8,-,N/A,,Clear,50,2012-10-27 21:53:00
5:53 PM,42.1,24.1,49,30.30,10.0,Calm,Calm,-,N/A,,Clear,0,2012-10-27 22:53:00
6:53 PM,39.0,25.0,57,30.31,10.0,Calm,Calm,-,N/A,,Clear,0,2012-10-27 23:53:00
7:53 PM,37.0,26.1,65,30.32,10.0,Calm,Calm,-,N/A,,Clear,0,2012-10-28 00:53:00
8:53 PM,35.1,25.0,67,30.33,10.0,NE,3.5,-,N/A,,Clear,50,2012-10-28 01:53:00
9:53 PM,35.1,26.1,70,30.34,10.0,NE,4.6,-,N/A,,Clear,50,2012-10-28 02:53:00
11:53 PM,34.0,26.1,73,30.35,10.0,Calm,Calm,-,N/A,,Partly Cloudy,0,2012-10-28 04:53:00